This is the latest recevied weather packets stored in our database for station/object N6GPM. If no packets are shown the sender has not sent any weather packets the latest 10 day(s).
| Time | Temp. | Humidity | Pressure | Rain* | Wind** | Luminosity | Snow |
|---|---|---|---|---|---|---|---|
| 1777934013 | 17.22° C | 55% | 1017.6 hPa | 0 mm | - | 201 W/m² | - |
| 1777933710 | 17.22° C | 54% | 1017.7 hPa | 0 mm | - | 275 W/m² | - |
| 1777933407 | 17.78° C | 53% | 1017.9 hPa | 0 mm | - | 393 W/m² | - |
| 1777933106 | 17.78° C | 53% | 1017.8 hPa | 0 mm | - | 482 W/m² | - |
| 1777932802 | 17.78° C | 53% | 1018 hPa | 0 mm | - | 333 W/m² | - |
| 1777932499 | 17.78° C | 53% | 1018.1 hPa | 0 mm | - | 612 W/m² | - |
| 1777932196 | 17.78° C | 51% | 1018.2 hPa | 0 mm | - | 300 W/m² | - |
| 1777931893 | 17.22° C | 52% | 1017.9 hPa | 0 mm | - | 285 W/m² | - |
| 1777931589 | 17.78° C | 51% | 1018 hPa | 0 mm | - | 234 W/m² | - |
| 1777931285 | 17.78° C | 48% | 1018 hPa | 0 mm | - | 298 W/m² | - |
| 1777930982 | 17.22° C | 51% | 1018.1 hPa | 0 mm | - | 297 W/m² | - |
| 1777930679 | 17.22° C | 54% | 1018.3 hPa | 0 mm | - | 482 W/m² | - |
| 1777930375 | 17.78° C | 53% | 1018.3 hPa | 0 mm | - | 274 W/m² | - |
| 1777930073 | 17.78° C | 52% | 1018.4 hPa | 0 mm | - | 803 W/m² | - |
| 1777929769 | 16.67° C | 53% | 1018.5 hPa | 0 mm | - | 678 W/m² | - |
| 1777929466 | 16.67° C | 55% | 1018.7 hPa | 0 mm | - | 320 W/m² | - |
| 1777929162 | 16.67° C | 55% | 1018.6 hPa | 0 mm | - | 328 W/m² | - |
| 1777928860 | 16.67° C | 56% | 1018.6 hPa | 0 mm | - | 414 W/m² | - |
| 1777928557 | 16.67° C | 56% | 1018.6 hPa | 0 mm | - | 439 W/m² | - |
| 1777928254 | 16.67° C | 56% | 1018.5 hPa | 0 mm | - | 266 W/m² | - |
| 1777927952 | 16.11° C | 57% | 1018.7 hPa | 0 mm | - | 193 W/m² | - |
| 1777927650 | 16.11° C | 57% | 1018.7 hPa | 0 mm | - | 188 W/m² | - |
| 1777927348 | 16.11° C | 56% | 1018.8 hPa | 0 mm | - | 214 W/m² | - |
| 1777927047 | 16.11° C | 57% | 1018.5 hPa | 0 mm | - | 212 W/m² | - |
| 1777926743 | 16.11° C | 56% | 1018.8 hPa | 0 mm | - | 209 W/m² | - |
* Rain latest hour (hover to see other rain measurements)
** Current wind speed in m/s (hover to see current wind gust speed)